Other Public Products
Issued by NWS Grand Forks, ND

Home | Current Version | Previous Version | Text Only | Print | Product List | Glossary Off
Versions: 1 2 3 4 5 6 7 8 9 10 11 12 13 14 15 16 17 18 19 20 21 22 23 24 25 26 27 28 29 30 31 32 33 34 35 36 37 38 39 40 41 42 43 44 45 46 47 48 49 50

000
FPUS83 KFGF 230010
OPUFGF
NATIONAL WEATHER SERVICE EASTERN NORTH DAKOTA/GRAND FORKS ND
700 PM CDT FRI MAY 22 2015

 **SATELLITE DATA USED TO AUGMENT SKY COVER AT AUTOMATED STATIONS**
 *****  WEATHER ACROSS EASTERN NORTH DAKOTA  *****

CITY           SKY/WX    TMP DP  RH WIND       PRES   REMARKS
GRAND FORKS    MOSUNNY   76  39  26 S7        30.10F
6HR MIN TEMP:  73; 6HR MAX TEMP:  78;

GRAND FORKS AF SUNNY     76  37  24 S7        30.11F
GRAND CITY NWS   N/A     73 N/A N/A S6          N/A
BUXTON         NOT AVBL
DEVILS LAKE    SUNNY     73  34  23 S13       30.11S
6HR MIN TEMP:  72; 6HR MAX TEMP:  75;

FARGO          SUNNY     74  42  31 S5G17     30.12F
6HR MIN TEMP:  70; 6HR MAX TEMP:  75;

WAHPETON ARPT  CLEAR     72  32  23 SE7       30.13S
$$

 *****  WEATHER ACROSS CENTRAL AND WESTERN NORTH DAKOTA  *****

CITY           SKY/WX    TMP DP  RH WIND       PRES   REMARKS
JAMESTOWN      SUNNY     71  37  28 SE8       30.10
6HR MIN TEMP:  71; 6HR MAX TEMP:  75; 6HR PCP: TRACE;

BISMARCK       MOSUNNY   73  36  25 SE18      30.07F
6HR MIN TEMP:  72; 6HR MAX TEMP:  77;

MINOT          SUNNY     75  32  20 S10G21    30.06F
6HR MIN TEMP:  73; 6HR MAX TEMP:  77;

MINOT AFB      MOSUNNY   78  34  20 S10       30.05F
6HR MIN TEMP:  76; 6HR MAX TEMP:  79;

GARRISON         N/A     72  36  26 S9        30.07F
6HR MIN TEMP:  72; 6HR MAX TEMP:  76;

WILLISTON      MOSUNNY   75  33  21 S14G21    30.03S
6HR MIN TEMP:  72; 6HR MAX TEMP:  78;

DICKINSON      SUNNY     69  33  26 S24G30    30.04S
6HR MIN TEMP:  68; 6HR MAX TEMP:  73;

HETTINGER      PTSUNNY   66  33  29 SE21G30   30.06S
6HR MIN TEMP:  66; 6HR MAX TEMP:  70;

$$

 *****  OTHER OBSERVATIONS NORTHEAST NORTH DAKOTA  *****

CITY           SKY/WX    TMP DP  RH WIND       PRES   REMARKS
WALHALLA       FAIR      77  37  24 NW5       30.08F
LANGDON        FAIR      75  34  22 SW12G18   30.11F
CAVALIER       FAIR      77  37  24 SW8       30.08F
GRAFTON        FAIR      75  41  29 S10       30.10S
CANDO          FAIR      75  30  19 S16       30.11S
FORT TOTTEN      N/A     75  29  18 S8        29.95S
ROLLA          FAIR      73  30  20 S14G20    30.11S
RUGBY          NOT AVBL
 ***** THE ABOVE OBSERVATIONS ARE NON NWS ARE NOT QUALITY
        CONTROLLED AND MAY MIS-REPORT RAIN FOR SNOW...
$$

 *****  OTHER OBSERVATIONS SOUTHEAST NORTH DAKOTA *****

CITY           SKY/WX    TMP DP  RH WIND       PRES   REMARKS
COOPERSTOWN    NOT AVBL
VALLEY CITY    FAIR      72  36  26 S7        30.12F
OAKES            N/A     73  39  29 E10       30.11F
GWINNER        NOT AVBL
SHEYENNE NWR     N/A     76  31  19 S7        29.95S
BUFFALO        NOT AVBL
WYNDMERE         N/A     75  27  16 SE8         N/A
 ***** THE ABOVE OBSERVATIONS ARE NON NWS ARE NOT QUALITY
       CONTROLLED AND MAY MIS-REPORT RAIN FOR SNOW...
$$

  *****  WEATHER ACROSS NORTHERN MINNESOTA  *****

CITY           SKY/WX    TMP DP  RH WIND       PRES   REMARKS
FLAG ISLAND    NOT AVBL
WARROAD        MOSUNNY   75  45  33 SW12G20   30.09S
ROSEAU         MOSUNNY   75  39  27 SW14      30.09S
HALLOCK        MOSUNNY   77  37  24 SW13G18   30.08S
THF RVR FALLS  SUNNY     75  36  23 SW10      30.13S
6HR MIN TEMP:  70; 6HR MAX TEMP:  75;

HALSTAD        NOT AVBL
FOSSTON        SUNNY     75  37  25 SW6       30.14F
BAUDETTE       MOSUNNY   74  38  27 W10       30.09F
6HR MIN TEMP:  70; 6HR MAX TEMP:  77;

WASKISH        SUNNY     72  43  35 CALM      30.12F
CROOKSTON      SUNNY     75  37  25 SW9       30.12F
$$
  *****  WEATHER ACROSS CENTRAL AND WEST MINNESOTA  *****

CITY           SKY/WX    TMP DP  RH WIND       PRES   REMARKS
BEMIDJI        SUNNY     73  35  24 SW3       30.14S
PARK RAPIDS    SUNNY     73  33  23 SW8       30.14F
6HR MIN TEMP:  70; 6HR MAX TEMP:  76;

WADENA         SUNNY     72  37  28 S6        30.16S
DETROIT LAKES  SUNNY     72  34  25 S7        30.17S
MOORHEAD       SUNNY     73  36  25 SE5       30.14S
FERGUS FALLS   SUNNY     73  36  25 SE7       30.14S
ELBOW LAKE     FAIR      71  35  26 SE5       30.15S
6HR MIN TEMP:  68; 6HR MAX TEMP:  73;

MORRIS MN      MOSUNNY   73  30  20 SE5       30.14S
STAPLES        SUNNY     72  34  25 S8        30.16S
WHEATON        MOSUNNY   72  32  23 SE8       30.15S
$$
  *****  WEATHER ELSEWHERE ACROSS MINNESOTA  *****

CITY           SKY/WX    TMP DP  RH WIND       PRES   REMARKS
DULUTH         MOSUNNY   72  32  23 W5        30.16S
6HR MIN TEMP:  66; 6HR MAX TEMP:  73;

INTRNTL FALLS  MOSUNNY   73  37  27 W12       30.10S
6HR MIN TEMP:  68; 6HR MAX TEMP:  75;

ELY            SUNNY     70  28  21 W9        30.13S
CLOQUET        SUNNY     72  27  18 W5        30.16S
BRAINERD       SUNNY     71  33  24 S6        30.16F
6HR MIN TEMP:  68; 6HR MAX TEMP:  74;

HIBBING        SUNNY     72  32  23 W9        30.14F
6HR MIN TEMP:  68; 6HR MAX TEMP:  74; 6HR PCP: TRACE;

ALEXANDRIA     SUNNY     71  34  25 S6        30.17F
6HR MIN TEMP:  67; 6HR MAX TEMP:  72;

SAINT CLOUD    SUNNY     73  34  23 CALM      30.17S
6HR MIN TEMP:  68; 6HR MAX TEMP:  74;

MINNEAPOLIS    PTSUNNY   72  34  24 SE6       30.18S
6HR MIN TEMP:  70; 6HR MAX TEMP:  75;

$$

  *****  WEATHER ACROSS SOUTH DAKOTA  *****

CITY           SKY/WX    TMP DP  RH WIND       PRES   REMARKS
SIOUX FALLS    CLOUDY    66  40  38 SW13G24   30.15S
6HR MIN TEMP:  66; 6HR MAX TEMP:  75;

BROOKINGS      CLOUDY    72  34  25 S7        30.14S
WATERTOWN      PTSUNNY   70  37  29 S9        30.12F
6HR MIN TEMP:  70; 6HR MAX TEMP:  76;

HURON          CLOUDY    69  41  36 S8        30.11F
6HR MIN TEMP:  69; 6HR MAX TEMP:  75;

SISSETON         N/A     74  27  17 CALM      30.12S
ABERDEEN       CLOUDY    74  38  27 S10       30.09F
6HR MIN TEMP:  73; 6HR MAX TEMP:  78;

MITCHELL       CLOUDY    64  43  46 SW23      30.16R
PIERRE         CLOUDY    64  40  41 S18       30.10S
6HR MIN TEMP:  64; 6HR MAX TEMP:  72;

MOBRIDGE       PTSUNNY   71  38  29 S17       30.06S
RAPID CITY     CLOUDY    57  42  57 S16       30.07R
6HR MIN TEMP:  57; 6HR MAX TEMP:  62;

$$

  *****  SOME WEATHER IN NEARBY STATES *****

CITY           SKY/WX    TMP DP  RH WIND       PRES   REMARKS
GLASGOW MT     CLOUDY    71  40  32 E18       29.96S
6HR MIN TEMP:  71; 6HR MAX TEMP:  75;

GREAT FALLS MT PTSUNNY   67  43  41 E12       29.92R
6HR MIN TEMP:  65; 6HR MAX TEMP:  71;

CHEYENNE WY    CLOUDY    47  41  80 SE10      30.01S
SCOTTSBLUFF NE CLOUDY    49  47  93 SE17      30.04S
6HR MIN TEMP:  49; 6HR MAX TEMP:  51; 6HR PCP:  0.02;

OMAHA NE       PTSUNNY   67  43  41 E8        30.18F
6HR MIN TEMP:  60; 6HR MAX TEMP:  70; 6HR PCP:  0.01;

DES MOINES IA  CLOUDY    71  46  40 SW13      30.19S
6HR MIN TEMP:  71; 6HR MAX TEMP:  78;

DAVENPORT IA   PTSUNNY   73  36  25 SW8       30.20S
6HR MIN TEMP:  73; 6HR MAX TEMP:  77;

CHICAGO IL     CLOUDY    57  25  29 E10       30.25F
6HR MIN TEMP:  57; 6HR MAX TEMP:  66;

EAU CLAIRE WI  MOSUNNY   71  31  22 CALM      30.19S
6HR MIN TEMP:  67; 6HR MAX TEMP:  73;

LA CROSSE WI   PTSUNNY   74  34  23 CALM      30.18S
6HR MIN TEMP:  72; 6HR MAX TEMP:  77;

$$

  *****  SOME NATIONAL WEATHER *****

CITY           SKY/WX    TMP DP  RH WIND       PRES   REMARKS
LA GUARDIA NY  MOCLDY    69  40  34 W12       29.98R


USA.gov is the U.S. government's official web portal to all federal, state and local government web resources and services.